Meteo orario Aljojuca

Oggi, 24 Ottobre, Sabato

Tempo Temperatura Precipitazioni Vento Pressione Umidità
00:00 +9°C° 0 mm 2 m/s 560 mm Hg 48%
01:00 +8°C° 0 mm 2 m/s 560 mm Hg 49%
02:00 +8°C° 0 mm 2 m/s 559 mm Hg 50%
03:00 +8°C° 0 mm 2 m/s 559 mm Hg 53%
04:00 +7°C° 0 mm 2 m/s 559 mm Hg 56%
05:00 +7°C° 0 mm 2 m/s 559 mm Hg 58%
06:00 +9°C° 0 mm 2 m/s 560 mm Hg 53%
07:00 +12°C° 0 mm 2 m/s 562 mm Hg 48%
08:00 +14°C° 0 mm 2 m/s 563 mm Hg 43%
09:00 +16°C° 0 mm 3 m/s 564 mm Hg 38%
10:00 +18°C° 0 mm 3 m/s 564 mm Hg 33%
11:00 +19°C° 0 mm 3 m/s 565 mm Hg 28%
12:00 +19°C° 0 mm 3 m/s 564 mm Hg 31%
13:00 +20°C° 0 mm 3 m/s 564 mm Hg 34%
14:00 +20°C° 0 mm 4 m/s 563 mm Hg 36%
15:00 +18°C° 0 mm 3 m/s 562 mm Hg 49%
16:00 +16°C° 0 mm 3 m/s 561 mm Hg 61%
17:00 +14°C° 0 mm 2 m/s 561 mm Hg 74%
18:00 +13°C° 0 mm 2 m/s 561 mm Hg 78%
19:00 +12°C° 0 mm 2 m/s 561 mm Hg 82%
20:00 +11°C° 0 mm 1 m/s 561 mm Hg 87%
21:00 +11°C° 0 mm 1 m/s 561 mm Hg 87%
22:00 +10°C° 0 mm 1 m/s 560 mm Hg 88%
23:00 +10°C° 0 mm 1 m/s 560 mm Hg 89%

Domani, 25 Ottobre, Domenica

Tempo Temperatura Precipitazioni Vento Pressione Umidità
00:00 +10°C° 0 mm 1 m/s 559 mm Hg 88%
01:00 +9°C° 0 mm 1 m/s 559 mm Hg 87%
02:00 +9°C° 0 mm 1 m/s 559 mm Hg 86%
03:00 +9°C° 0 mm 1 m/s 559 mm Hg 85%
04:00 +9°C° 0 mm 1 m/s 559 mm Hg 83%
05:00 +8°C° 0 mm 1 m/s 559 mm Hg 82%
06:00 +11°C° 0 mm 1 m/s 560 mm Hg 73%
07:00 +13°C° 0 mm 1 m/s 561 mm Hg 64%
08:00 +15°C° 0 mm 1 m/s 563 mm Hg 54%
09:00 +18°C° 0 mm 1 m/s 563 mm Hg 50%
10:00 +20°C° 0 mm 1 m/s 564 mm Hg 45%
11:00 +20°C° 0 mm 2 m/s 564 mm Hg 41%
12:00 +20°C° 0 mm 2 m/s 564 mm Hg 41%
13:00 +21°C° 0 mm 2 m/s 563 mm Hg 41%
14:00 +21°C° 0 mm 2 m/s 562 mm Hg 42%
15:00 +19°C° 0 mm 2 m/s 562 mm Hg 53%
16:00 +17°C° 0 mm 2 m/s 561 mm Hg 63%
17:00 +16°C° 0 mm 2 m/s 560 mm Hg 74%
18:00 +15°C° 0 mm 1 m/s 560 mm Hg 79%
19:00 +14°C° 0 mm 1 m/s 560 mm Hg 84%
20:00 +13°C° 0 mm 1 m/s 560 mm Hg 89%
21:00 +12°C° 0 mm 0 m/s 560 mm Hg 90%
22:00 +11°C° 0 mm 0 m/s 559 mm Hg 91%
23:00 +11°C° 0 mm 0 m/s 559 mm Hg 92%

Dopodomani, 26 Ottobre, Lunedi

Tempo Temperatura Precipitazioni Vento Pressione Umidità
00:00 +10°C° 0 mm 0 m/s 559 mm Hg 92%
01:00 +10°C° 0 mm 0 m/s 558 mm Hg 91%
02:00 +10°C° 0 mm 0 m/s 558 mm Hg 91%
03:00 +9°C° 0 mm 0 m/s 558 mm Hg 90%
04:00 +9°C° 0 mm 0 m/s 558 mm Hg 90%
05:00 +9°C° 0 mm 0 m/s 558 mm Hg 89%
06:00 +11°C° 0 mm 0 m/s 559 mm Hg 80%
07:00 +13°C° 0 mm 0 m/s 561 mm Hg 71%
08:00 +16°C° 0 mm 0 m/s 562 mm Hg 61%
09:00 +19°C° 0 mm 1 m/s 562 mm Hg 54%
10:00 +21°C° 0 mm 1 m/s 563 mm Hg 46%
11:00 +21°C° 0 mm 2 m/s 563 mm Hg 39%
12:00 +21°C° 0 mm 2 m/s 563 mm Hg 39%
13:00 +21°C° 0 mm 2 m/s 562 mm Hg 39%
14:00 +21°C° 0 mm 2 m/s 562 mm Hg 39%
15:00 +20°C° 0 mm 2 m/s 561 mm Hg 51%
16:00 +18°C° 0 mm 2 m/s 560 mm Hg 63%
17:00 +16°C° 0 mm 2 m/s 560 mm Hg 75%
18:00 +15°C° 0 mm 1 m/s 560 mm Hg 79%
19:00 +14°C° 0 mm 1 m/s 560 mm Hg 84%
20:00 +14°C° 0 mm 1 m/s 560 mm Hg 88%
21:00 +13°C° 0 mm 1 m/s 560 mm Hg 89%
22:00 +13°C° 0 mm 1 m/s 559 mm Hg 89%
23:00 +12°C° 0 mm 1 m/s 559 mm Hg 90%

, 27 Ottobre, Martedi

Tempo Temperatura Precipitazioni Vento Pressione Umidità
00:00 +12°C° 0 mm 1 m/s 559 mm Hg 91%
01:00 +11°C° 0 mm 0 m/s 558 mm Hg 92%
02:00 +10°C° 0 mm 0 m/s 558 mm Hg 92%
03:00 +10°C° 0 mm 0 m/s 558 mm Hg 92%
04:00 +9°C° 0 mm 0 m/s 558 mm Hg 91%
05:00 +9°C° 0 mm 0 m/s 558 mm Hg 91%
06:00 +11°C° 0 mm 0 m/s 559 mm Hg 82%
07:00 +13°C° 0 mm 0 m/s 560 mm Hg 74%
08:00 +15°C° 0 mm 0 m/s 562 mm Hg 65%
09:00 +19°C° 0 mm 1 m/s 562 mm Hg 60%
10:00 +19°C° 0 mm 2 m/s 563 mm Hg 55%
11:00 +20°C° 0 mm 2 m/s 563 mm Hg 50%
12:00 +20°C° 0.1 mm 3 m/s 562 mm Hg 51%
13:00 +20°C° 0.1 mm 3 m/s 562 mm Hg 51%
14:00 +20°C° 0.1 mm 3 m/s 561 mm Hg 52%
15:00 +19°C° 0.1 mm 3 m/s 561 mm Hg 61%
16:00 +17°C° 0.1 mm 2 m/s 560 mm Hg 70%
17:00 +16°C° 0.1 mm 2 m/s 560 mm Hg 79%
18:00 +15°C° 0.1 mm 1 m/s 560 mm Hg 82%
19:00 +15°C° 0.1 mm 1 m/s 560 mm Hg 85%
20:00 +14°C° 0.1 mm 1 m/s 560 mm Hg 88%
21:00 +14°C° 0.1 mm 1 m/s 560 mm Hg 89%
22:00 +14°C° 0.1 mm 1 m/s 560 mm Hg 90%
23:00 +13°C° 0.1 mm 1 m/s 560 mm Hg 91%

27 Ottobre, Martedi

Tempo Temperatura Precipitazioni Vento Pressione Umidità
00:00 +12°C° 0 mm 1 m/s 559 mm Hg 91%
01:00 +11°C° 0 mm 0 m/s 558 mm Hg 92%
02:00 +10°C° 0 mm 0 m/s 558 mm Hg 92%
03:00 +10°C° 0 mm 0 m/s 558 mm Hg 92%
04:00 +9°C° 0 mm 0 m/s 558 mm Hg 91%
05:00 +9°C° 0 mm 0 m/s 558 mm Hg 91%
06:00 +11°C° 0 mm 0 m/s 559 mm Hg 82%
07:00 +13°C° 0 mm 0 m/s 560 mm Hg 74%
08:00 +15°C° 0 mm 0 m/s 562 mm Hg 65%
09:00 +19°C° 0 mm 1 m/s 562 mm Hg 60%
10:00 +19°C° 0 mm 2 m/s 563 mm Hg 55%
11:00 +20°C° 0 mm 2 m/s 563 mm Hg 50%
12:00 +20°C° 0.1 mm 3 m/s 562 mm Hg 51%
13:00 +20°C° 0.1 mm 3 m/s 562 mm Hg 51%
14:00 +20°C° 0.1 mm 3 m/s 561 mm Hg 52%
15:00 +19°C° 0.1 mm 3 m/s 561 mm Hg 61%
16:00 +17°C° 0.1 mm 2 m/s 560 mm Hg 70%
17:00 +16°C° 0.1 mm 2 m/s 560 mm Hg 79%
18:00 +15°C° 0.1 mm 1 m/s 560 mm Hg 82%
19:00 +15°C° 0.1 mm 1 m/s 560 mm Hg 85%
20:00 +14°C° 0.1 mm 1 m/s 560 mm Hg 88%
21:00 +14°C° 0.1 mm 1 m/s 560 mm Hg 89%
22:00 +14°C° 0.1 mm 1 m/s 560 mm Hg 90%
23:00 +13°C° 0.1 mm 1 m/s 560 mm Hg 91%

28 Ottobre, Mercoledi

Tempo Temperatura Precipitazioni Vento Pressione Umidità
00:00 +13°C° 0.1 mm 1 m/s 559 mm Hg 92%
01:00 +13°C° 0.1 mm 1 m/s 559 mm Hg 92%
02:00 +12°C° 0.1 mm 1 m/s 559 mm Hg 93%
03:00 +12°C° 0 mm 1 m/s 559 mm Hg 93%
04:00 +12°C° 0 mm 1 m/s 559 mm Hg 93%
05:00 +11°C° 0 mm 0 m/s 559 mm Hg 92%
06:00 +13°C° 0 mm 1 m/s 560 mm Hg 87%
07:00 +14°C° 0 mm 1 m/s 561 mm Hg 82%
08:00 +15°C° 0 mm 1 m/s 562 mm Hg 76%
09:00 +16°C° 0.2 mm 1 m/s 562 mm Hg 72%
10:00 +18°C° 0.2 mm 1 m/s 562 mm Hg 68%
11:00 +18°C° 0.2 mm 2 m/s 562 mm Hg 64%
12:00 +18°C° 0.4 mm 2 m/s 562 mm Hg 66%
13:00 +18°C° 0.4 mm 2 m/s 561 mm Hg 68%
14:00 +18°C° 0.4 mm 2 m/s 560 mm Hg 70%
15:00 +17°C° 0.6 mm 2 m/s 560 mm Hg 75%
16:00 +16°C° 0.6 mm 2 m/s 560 mm Hg 80%
17:00 +15°C° 0.6 mm 2 m/s 560 mm Hg 85%
18:00 +14°C° 0.2 mm 2 m/s 560 mm Hg 86%
19:00 +14°C° 0.2 mm 2 m/s 561 mm Hg 88%
20:00 +14°C° 0.2 mm 1 m/s 561 mm Hg 89%
21:00 +13°C° 0.1 mm 1 m/s 561 mm Hg 89%
22:00 +13°C° 0.1 mm 1 m/s 561 mm Hg 90%
23:00 +13°C° 0.1 mm 1 m/s 561 mm Hg 91%

29 Ottobre, Giovedi

Tempo Temperatura Precipitazioni Vento Pressione Umidità
00:00 +13°C° 0.1 mm 1 m/s 561 mm Hg 90%
01:00 +13°C° 0.1 mm 1 m/s 561 mm Hg 90%
02:00 +13°C° 0.1 mm 1 m/s 560 mm Hg 89%
03:00 +12°C° 0 mm 1 m/s 560 mm Hg 90%
04:00 +12°C° 0 mm 1 m/s 560 mm Hg 90%
05:00 +12°C° 0 mm 1 m/s 560 mm Hg 90%
06:00 +13°C° 0 mm 1 m/s 561 mm Hg 85%
07:00 +14°C° 0 mm 1 m/s 562 mm Hg 79%
08:00 +15°C° 0 mm 1 m/s 563 mm Hg 74%
09:00 +16°C° 0 mm 1 m/s 564 mm Hg 68%
10:00 +17°C° 0 mm 2 m/s 564 mm Hg 63%
11:00 +18°C° 0 mm 2 m/s 564 mm Hg 58%
12:00 +19°C° 0.1 mm 2 m/s 564 mm Hg 57%
13:00 +19°C° 0.1 mm 2 m/s 564 mm Hg 57%
14:00 +19°C° 0.1 mm 3 m/s 563 mm Hg 56%
15:00 +17°C° 0 mm 2 m/s 563 mm Hg 63%
16:00 +15°C° 0 mm 2 m/s 562 mm Hg 71%
17:00 +14°C° 0 mm 2 m/s 562 mm Hg 78%
18:00 +13°C° 0 mm 2 m/s 562 mm Hg 81%
19:00 +12°C° 0 mm 2 m/s 562 mm Hg 83%
20:00 +10°C° 0 mm 2 m/s 562 mm Hg 86%
21:00 +9°C° 0 mm 2 m/s 562 mm Hg 86%
22:00 +9°C° 0 mm 2 m/s 561 mm Hg 87%
23:00 +8°C° 0 mm 2 m/s 561 mm Hg 87%
Mostrare altro

Abbiamo bisogno del tuo consenso

Meteoprog e i nostri fornitori di servizi possono memorizzare e accedere a dati personali come cookie, identificatori di dispositivi o altre tecnologie simili sul tuo dispositivo e possono elaborare tali dati per personalizzare i contenuti e gli annunci, nonché fornire funzionalità dei social media e analizzarne il traffico.

  • Archiviare e/o accedere alle informazioni sul tuo dispositivo

    Cookie, identificatori di dispositivi o altre informazioni possono essere memorizzati o resi accessibili sul tuo dispositivo per le finalità sopra indicate.

  • Annunci e contenuti personalizzati, misurazione di annunci e contenuti, approfondimenti sul pubblico e sviluppo di prodotti

    Gli annunci e i contenuti possono essere personalizzati in base a un profilo. È possibile aggiungere più dati per personalizzare meglio annunci e contenuti. È possibile misurare il rendimento degli annunci e dei contenuti. È possibile ricavare informazioni sul pubblico che ha visto gli annunci e i contenuti. Tali dati possono essere utilizzati per sviluppare o migliorare l'esperienza, i sistemi e il software dell'utente.

Cliccando su “Accetto”, acconsenti all'uso di cookie, identificatori di dispositivo, web beacon o altre tecnologie simili. Puoi modificare le impostazioni nel browser del tuo dispositivo.

Per determinati scopi, è possibile fare affidamento su interessi legali, piuttosto che sul consenso. Puoi approfondire questo argomento consultando la nostra Informativa sulla privacy e sui cookie.